[[{"header":{"parameterUnit":"m.s-1","parameterCategory":1,"la1":30.2991,"la2":30.254,"lo1":-89.0895,"lo2":-89.0444,"dy":0.0017,"dx":0.0017,"nx":28,"ny":28,"refTime":"2023-09-12T21:00:00:Z","depth":0,"parameterNumber":2,"parameterNumberName":"U-component_of_WINDS"},"data":[0,0,0,0,0,0,0,0,0,0,0,0,0,0,0,0,0,0,0,0,0,0,0,0,0,0,0,0,0,0,0,0,0,0,0,0,0,0,0,0,0,0,0,0,0,0,0,0,0,0,0,0,0,0,0,0,0,0,0.0273,0.0273,0,0.0306,0.0306,0.0307,0.0309,0.0308,0.0308,0.0308,0.0342,0.0344,0.0345,0,0,0,0,0,0,0,0,0,0,0,0,0,0.0211,0.0213,0.0273,0.0273,0.0274,0.0306,0.0306,0.0307,0.0309,0.0308,0.0308,0.0308,0.0342,0.0344,0.0345,0,0,0,0,0,0,0,0,0,0,0,0,0,0.0241,0.0213,0.0273,0.0279,0.028,0.0306,0.0306,0.0307,0.0309,0.0308,0.0308,0.0307,0.0342,0.0343,0.0345,0.0368,0,0,0.0351,0.0352,0,0,0,0,0,0,0,0,0.0239,0.0243,0.0277,0.0278,0.0279,0.0303,0.0297,0.0328,0.0309,0.0298,0.0308,0.0307,0.033,0.0333,0.034,0.037,0.0371,0.0351,0.0352,0.0353,0.0354,0,0,0,0,0,0,0,0.0237,0.0242,0.0286,0.0278,0.0279,0.028,0.0283,0.0303,0.0317,0.0299,0.0299,0.0303,0.033,0.0338,0.0341,0.0372,0.0351,0.0353,0.0354,0.0355,0.0421,0.0421,0,0,0,0,0,0,0.0234,0.024,0.0285,0.0287,0.0257,0.0281,0.0285,0.0296,0.0316,0.0319,0.0303,0.0303,0.0335,0.0339,0.0342,0.037,0.0353,0.0355,0.0356,0.042,0.0421,0.0422,0,0,0,0,0,0,0.0233,0.0238,0.0284,0.0263,0.0269,0.0283,0.0295,0.0297,0.0305,0.032,0.0322,0.0309,0.0335,0.0339,0.0361,0.0371,0.0356,0.0358,0.042,0.042,0.0421,0.0425,0,0,0,0,0,0,0.0231,0.0237,0.0246,0.0264,0.027,0.0302,0.0295,0.0298,0.0308,0.0308,0.0326,0.0328,0.0335,0.0358,0.0363,0.0373,0.0359,0.0419,0.042,0.0421,0.0424,0.0426,0.0428,0,0,0,0,0,0.0229,0.0247,0.0247,0.0252,0.0282,0.0303,0.0307,0.0314,0.0309,0.0318,0.0327,0.0328,0.0369,0.0361,0.0366,0.0377,0.0418,0.042,0.0421,0.0423,0.0426,0.0428,0,0,0,0,0,0,0.0231,0.0249,0.025,0.0274,0.0287,0.0303,0.0315,0.0316,0.0331,0.033,0.0338,0.0342,0.0364,0.0373,0.0363,0.0399,0.0393,0.0396,0.0393,0.0395,0.0397,0.0395,0.0361,0,0,0,0,0,0.0234,0.025,0.0265,0.0285,0.0291,0.0302,0.0311,0.0315,0.0329,0.0335,0.0346,0.036,0.0375,0.0386,0.0401,0.0425,0.0429,0.0435,0.0437,0.0438,0.044,0.0453,0.0455,0.0426,0.0426,0.0426,0,0,0.0241,0.0253,0.0262,0.0285,0.0296,0.0311,0.0307,0.0324,0.0335,0.0338,0.0359,0.0367,0.0383,0.0405,0.0416,0.0413,0.0449,0.044,0.0441,0.0442,0.0454,0.0457,0.0459,0.0427,0.0427,0.0427,0,0,0.0262,0.0273,0.029,0.03,0.0316,0.0323,0.0327,0.0343,0.0348,0.037,0.0371,0.0385,0.0413,0.0423,0.0432,0.0455,0.0456,0.046,0.0469,0.0481,0.0483,0.0485,0.0493,0.0496,0.0462,0.0462,0.0462,0,0.0269,0.0292,0.0299,0.0315,0.0325,0.0327,0.0344,0.0354,0.0374,0.0381,0.0377,0.0411,0.0421,0.0446,0.0451,0.0459,0.0463,0.0458,0.0482,0.0485,0.0487,0.0494,0.0497,0.0463,0.0463,0.0463,0.0462,0,0.0299,0.0316,0.0328,0.0346,0.0357,0.0374,0.0383,0.0393,0.0396,0.0403,0.0424,0.0436,0.0454,0.046,0.0463,0.0485,0.0483,0.0481,0.0475,0.049,0.0497,0.05,0.0463,0.0463,0.0463,0.0463,0,0,0.0323,0.0344,0.0349,0.0357,0.0373,0.0386,0.0402,0.0419,0.0428,0.0441,0.0455,0.0477,0.0475,0.0485,0.0489,0.05,0.0516,0.0496,0.0497,0.0499,0.054,0.0541,0.0544,0.0517,0.0517,0.0518,0.0538,0,0.0346,0.0375,0.0381,0.0406,0.0421,0.0422,0.0436,0.0448,0.0455,0.0468,0.0476,0.0491,0.0487,0.0493,0.0503,0.0512,0.0524,0.0511,0.0529,0.053,0.0525,0.0548,0.055,0.0569,0.0541,0.0542,0.0542,0,0.0376,0.0389,0.0416,0.043,0.0436,0.0449,0.0464,0.0477,0.0489,0.0494,0.0504,0.0507,0.0524,0.0516,0.0539,0.0529,0.0537,0.0542,0.0543,0.0545,0.0537,0.0551,0.0575,0.0578,0.0547,0.0546,0.0546,0,0.039,0.0415,0.0434,0.044,0.0457,0.0466,0.0473,0.0485,0.0495,0.0508,0.0514,0.0529,0.0537,0.0548,0.0555,0.0549,0.0577,0.057,0.0581,0.058,0.0587,0.0586,0.0613,0.0592,0.0592,0.0592,0.0592,0,0.0414,0.043,0.044,0.0452,0.0469,0.0475,0.0493,0.05,0.0511,0.0523,0.0526,0.0538,0.0545,0.0558,0.0564,0.0581,0.0585,0.0589,0.059,0.0588,0.0588,0.0594,0.0593,0.0593,0.0592,0.0592,0.0592,0,0.0433,0.044,0.0461,0.0474,0.0478,0.0491,0.0502,0.0513,0.0519,0.0536,0.054,0.055,0.0565,0.0572,0.0591,0.0595,0.0614,0.0615,0.061,0.061,0.062,0.0619,0.0651,0.0656,0.0632,0.0632,0.0632,0,0.0448,0.046,0.0475,0.0483,0.0491,0.0505,0.0514,0.052,0.0529,0.0544,0.0553,0.0568,0.0581,0.0605,0.0613,0.0628,0.0628,0.0639,0.0631,0.0628,0.0628,0.0627,0.0628,0.064,0.064,0.0641,0.0641,0,0.0473,0.0476,0.0489,0.0503,0.0514,0.0525,0.0536,0.0543,0.0551,0.0561,0.0576,0.0586,0.0605,0.0619,0.0634,0.0641,0.0642,0.0643,0.0646,0.0645,0.0641,0.0643,0.0614,0.0643,0.0642,0.0642,0.0642,0.0642,0.049,0.0501,0.0513,0.0527,0.0536,0.0546,0.0556,0.0564,0.0576,0.0592,0.0595,0.0611,0.0622,0.0642,0.0649,0.0662,0.0659,0.0664,0.0665,0.0666,0.0666,0.0639,0.0665,0.0664,0.0664,0.0664,0.0664,0,0.0515,0.0523,0.0536,0.0551,0.0562,0.0561,0.0573,0.0582,0.0596,0.0607,0.0618,0.0635,0.0649,0.0659,0.0673,0.0681,0.0682,0.0684,0.0684,0.0685,0.0668,0.0664,0.0684,0.0684,0.0684,0.0684,0.0684,0.0684,0.053,0.0547,0.0551,0.0573,0.058,0.0596,0.0602,0.0611,0.062,0.0639,0.065,0.0656,0.0666,0.068,0.0693,0.0695,0.07,0.0703,0.0705,0.0689,0.0687,0.0685,0.0681,0.0704,0.0704,0.0722,0.0722,0.0722]},{"header":{"parameterUnit":"m.s-1","parameterCategory":1,"la1":30.2991,"la2":30.254,"lo1":-89.0895,"lo2":-89.0444,"dy":0.0017,"dx":0.0017,"nx":28,"ny":28,"refTime":"2023-09-12T21:00:00:Z","depth":0,"parameterNumber":3,"parameterNumberName":"V-component_of_WINDS"},"data":[0,0,0,0,0,0,0,0,0,0,0,0,0,0,0,0,0,0,0,0,0,0,0,0,0,0,0,0,0,0,0,0,0,0,0,0,0,0,0,0,0,0,0,0,0,0,0,0,0,0,0,0,0,0,0,0,0,0,3.2797,3.2796,0,3.2709,3.2708,3.2707,3.2655,3.2654,3.2654,3.2654,3.2557,3.2554,3.2552,0,0,0,0,0,0,0,0,0,0,0,0,0,3.2916,3.2914,3.2797,3.2796,3.2795,3.2709,3.2708,3.2706,3.2655,3.2654,3.2654,3.2654,3.2557,3.2555,3.2552,0,0,0,0,0,0,0,0,0,0,0,0,0,3.2849,3.2913,3.2798,3.2759,3.2755,3.2709,3.2707,3.2706,3.2655,3.2654,3.2654,3.2654,3.2558,3.2555,3.2551,3.2535,0,0,3.254,3.2539,0,0,0,0,0,0,0,0,3.2853,3.2845,3.2766,3.2762,3.2757,3.2693,3.2713,3.2648,3.2655,3.2693,3.2654,3.2654,3.2602,3.2594,3.2578,3.253,3.2526,3.254,3.2538,3.2536,3.2535,0,0,0,0,0,0,0,3.2858,3.2848,3.2762,3.2765,3.2759,3.2744,3.2735,3.2701,3.2649,3.2689,3.2685,3.2676,3.2599,3.2582,3.2576,3.2525,3.254,3.2537,3.2534,3.2533,3.2457,3.2457,0,0,0,0,0,0,3.2869,3.2853,3.2765,3.2759,3.2805,3.2742,3.2731,3.2713,3.265,3.264,3.2676,3.2674,3.2588,3.258,3.2572,3.2548,3.2536,3.2533,3.2531,3.2457,3.2457,3.2457,0,0,0,0,0,0,3.2872,3.2862,3.2768,3.2805,3.2792,3.2741,3.2721,3.2712,3.2695,3.264,3.263,3.2668,3.2588,3.2577,3.2545,3.2544,3.2531,3.2528,3.2457,3.2457,3.2457,3.25,0,0,0,0,0,0,3.2876,3.2863,3.2858,3.2805,3.279,3.2745,3.2721,3.271,3.2689,3.2685,3.263,3.2621,3.2587,3.255,3.2541,3.2538,3.2525,3.2457,3.2457,3.2457,3.2498,3.2501,3.2504,0,0,0,0,0,3.288,3.2872,3.2858,3.2848,3.2783,3.2745,3.2736,3.2699,3.2689,3.2683,3.2648,3.2622,3.2546,3.2547,3.2536,3.2533,3.2457,3.2457,3.2457,3.2497,3.2501,3.2504,0,0,0,0,0,0,3.2924,3.2865,3.2848,3.2823,3.279,3.2736,3.2726,3.2704,3.2671,3.2668,3.2621,3.2609,3.2581,3.2553,3.2557,3.2513,3.2498,3.2496,3.2532,3.2535,3.2538,3.2545,3.2522,0,0,0,0,0,3.2931,3.2907,3.2856,3.2839,3.2823,3.2778,3.276,3.2734,3.2697,3.2681,3.2644,3.2607,3.2574,3.2553,3.252,3.2494,3.248,3.2486,3.2489,3.2492,3.249,3.2474,3.2475,3.2459,3.2459,3.2459,0,0,3.2945,3.2909,3.2897,3.2847,3.2818,3.2792,3.2766,3.274,3.272,3.2677,3.2644,3.2616,3.257,3.2541,3.2527,3.2518,3.2492,3.2492,3.2495,3.2492,3.2474,3.2476,3.2477,3.2459,3.2459,3.2459,0,0,3.2957,3.2928,3.2911,3.2883,3.284,3.281,3.2806,3.2756,3.2736,3.2703,3.267,3.2644,3.2589,3.2558,3.2535,3.2536,3.2511,3.2526,3.2541,3.2526,3.2527,3.2528,3.2527,3.2527,3.2525,3.2525,3.2525,0,3.2978,3.2941,3.2904,3.288,3.2858,3.2821,3.2801,3.2775,3.2723,3.2708,3.2699,3.2629,3.2596,3.2559,3.2559,3.2542,3.2534,3.2532,3.253,3.2531,3.2531,3.2529,3.2529,3.2527,3.2527,3.2527,3.2527,0,3.2969,3.2943,3.2934,3.2887,3.2864,3.2842,3.2801,3.2781,3.2758,3.2729,3.2695,3.2654,3.2612,3.2601,3.2577,3.256,3.2556,3.254,3.2523,3.2535,3.2533,3.2532,3.253,3.253,3.2529,3.2529,0,0,3.3005,3.2939,3.2936,3.2914,3.2864,3.2842,3.2818,3.2779,3.2763,3.2728,3.2706,3.2661,3.2645,3.2619,3.2591,3.2578,3.258,3.2562,3.256,3.2566,3.2557,3.2569,3.2569,3.2563,3.2563,3.2563,3.256,0,3.3008,3.2966,3.2933,3.2902,3.2877,3.2841,3.282,3.2786,3.2758,3.273,3.2698,3.2667,3.2649,3.2633,3.2618,3.2583,3.2577,3.2583,3.254,3.2539,3.2552,3.2568,3.2581,3.258,3.2559,3.2559,3.2559,0,3.3007,3.2976,3.2944,3.2896,3.2884,3.2867,3.2828,3.2803,3.2763,3.2743,3.2715,3.2687,3.2658,3.2646,3.2604,3.2609,3.2589,3.2569,3.2568,3.2562,3.2549,3.2561,3.2579,3.2579,3.2557,3.2558,3.2558,0,3.3035,3.2985,3.2959,3.2941,3.2886,3.2874,3.285,3.281,3.2789,3.2754,3.2739,3.2701,3.268,3.265,3.2611,3.2606,3.2573,3.2558,3.2554,3.2555,3.2548,3.2549,3.2562,3.2538,3.2538,3.2538,3.2538,0,3.3042,3.3023,3.2971,3.2955,3.2933,3.2893,3.2871,3.2844,3.2809,3.2785,3.2751,3.2729,3.268,3.2651,3.2621,3.259,3.2581,3.2562,3.2554,3.2565,3.2567,3.2551,3.2549,3.2538,3.2538,3.2538,3.2538,0,3.3069,3.3034,3.3003,3.2954,3.2941,3.2926,3.2883,3.2865,3.2836,3.2806,3.2797,3.2749,3.2714,3.2673,3.2623,3.2603,3.2574,3.2563,3.2588,3.2583,3.2582,3.2582,3.2584,3.2582,3.256,3.256,3.2561,0,3.3076,3.3061,3.3011,3.2994,3.2971,3.2944,3.2923,3.2883,3.2862,3.2815,3.2802,3.2765,3.2733,3.2678,3.2638,3.2599,3.2586,3.259,3.258,3.2591,3.2585,3.2586,3.2583,3.2592,3.2592,3.2593,3.2593,0,3.309,3.3074,3.3046,3.3011,3.2987,3.2958,3.2926,3.2914,3.2867,3.2845,3.281,3.2785,3.2736,3.2698,3.2655,3.2627,3.2602,3.2597,3.2593,3.2603,3.2619,3.2609,3.2594,3.2596,3.2596,3.2596,3.2595,3.2595,3.3106,3.3091,3.3054,3.3023,3.2996,3.2968,3.2949,3.2918,3.2888,3.2847,3.2825,3.279,3.2749,3.2689,3.2662,3.2633,3.2624,3.262,3.2618,3.2617,3.262,3.2625,3.2625,3.2624,3.2624,3.2624,3.2624,0,3.3119,3.3093,3.3066,3.3024,3.3,3.2981,3.2945,3.2925,3.2895,3.2861,3.2831,3.279,3.2753,3.2711,3.2671,3.2656,3.2643,3.2646,3.2646,3.264,3.2631,3.2637,3.2658,3.2658,3.2658,3.2658,3.2658,3.2658,3.3122,3.3096,3.3075,3.3034,3.3007,3.2975,3.2956,3.2929,3.2901,3.2858,3.2828,3.2802,3.2763,3.2721,3.2686,3.2674,3.2661,3.2668,3.2652,3.2644,3.2641,3.2638,3.2644,3.2665,3.2665,3.2664,3.2664,3.2664]}]]